Weather History for Winfield, KS

Change the Weather History Date:

Saturday, January 7, 2012

  Actual Average Record
Temperature  
Mean Temperature 41 °F -  
Max Temperature 52 °F 42 °F 72 °F (2006)
Min Temperature 30 °F 23 °F 5 °F (2015)
Degree Days  
Heating Degree Days 24    
Moisture  
Dew Point 21 °F    
Average Humidity 47    
Maximum Humidity 75    
Minimum Humidity 26    
Precipitation  
Precipitation 0.00 in - - ()
Sea Level Pressure  
Sea Level Pressure 30.14 in    
Wind  
Wind Speed 10 mph (NE)    
Max Wind Speed 16 mph    
Max Gust Speed -    
Visibility 10 miles    
Events      
Averages and records for this station are not official NWS values.
T = Trace of Precipitation, MM = Missing Value Source: NWS Daily Summary

Daily Weather History Graph

Daily Weather History Graph

Search for Another Location

Airport:

Trip Planner

Search our weather history database for the weather conditions in past years. The results will help you decide how hot, cold, wet, or windy it might be!

Date:

Astronomy

Jan. 07, 2012 Rise Set
Actual Time 7:42 AM CST 5:26 PM CST
Civil Twilight 7:13 AM CST 5:55 PM CST
Nautical Twilight 6:41 AM CST 6:27 PM CST
Astronomical Twilight 6:09 AM CST 6:59 PM CST
Moon 4:12 PM CST (1/7) 6:14 AM CST (1/7)
Length of Visible Light 10h 41m
Length of Day
9h 44m
Waxing Gibbous, 97% of the Moon is Illuminated
Jan 7
Waxing Gibbous
Jan 9
Full
Jan 16
Last Quarter
Jan 23
New
Jan 30
First Quarter

Hourly Weather History & Observations

Time (CST) Temp. Windchill Dew Point Humidity Pressure Visibility Wind Dir Wind Speed Gust Speed Precip Events Conditions
12:54 AM 44.1 °F 37.4 °F 25.0 °F 47% 30.07 in 10.0 mi North 13.8 mph - N/A   Clear
1:54 AM 42.1 °F 34.9 °F 24.1 °F 49% 30.07 in 10.0 mi North 13.8 mph - N/A   Clear
2:54 AM 39.0 °F 32.3 °F 23.0 °F 53% 30.09 in 10.0 mi North 10.4 mph - N/A   Clear
3:54 AM 33.1 °F 26.9 °F 23.0 °F 66% 30.11 in 10.0 mi North 6.9 mph - N/A   Clear
4:54 AM 34.0 °F 28.0 °F 23.0 °F 64% 30.11 in 10.0 mi NNE 6.9 mph - N/A   Clear
5:54 AM 30.0 °F 21.7 °F 23.0 °F 75% 30.13 in 10.0 mi North 9.2 mph - N/A   Clear
6:54 AM 30.0 °F 21.7 °F 21.9 °F 72% 30.15 in 10.0 mi North 9.2 mph - N/A   Clear
7:54 AM 30.0 °F 22.4 °F 21.9 °F 72% 30.16 in 10.0 mi NNE 8.1 mph - N/A   Clear
8:54 AM 34.0 °F 26.6 °F 21.9 °F 61% 30.17 in 10.0 mi NNE 9.2 mph - N/A   Clear
9:54 AM 42.1 °F 36.6 °F 23.0 °F 47% 30.18 in 10.0 mi NE 9.2 mph - N/A   Clear
10:54 AM 48.9 °F - 19.0 °F 31% 30.17 in 10.0 mi ENE 16.1 mph - N/A   Clear
11:54 AM 48.9 °F - 18.0 °F 29% 30.16 in 10.0 mi ENE 12.7 mph - N/A   Clear
12:54 PM 50.0 °F - 18.0 °F 28% 30.12 in 10.0 mi ENE 12.7 mph - N/A   Clear
1:54 PM 52.0 °F - 18.0 °F 26% 30.10 in 10.0 mi ENE 11.5 mph - N/A   Clear
2:54 PM 51.1 °F - 19.0 °F 28% 30.11 in 10.0 mi ENE 8.1 mph - N/A   Clear
3:54 PM 52.0 °F - 18.0 °F 26% 30.12 in 10.0 mi ENE 8.1 mph - N/A   Clear
4:54 PM 51.1 °F - 19.0 °F 28% 30.12 in 10.0 mi ENE 6.9 mph - N/A   Clear
5:54 PM 46.9 °F - 19.9 °F 34% 30.14 in 10.0 mi NE 5.8 mph - N/A   Clear
6:54 PM 43.0 °F 38.8 °F 21.0 °F 42% 30.16 in 10.0 mi NE 6.9 mph - N/A   Clear
7:54 PM 41.0 °F 35.8 °F 21.0 °F 45% 30.15 in 10.0 mi NE 8.1 mph - N/A   Clear
8:54 PM 39.0 °F 34.0 °F 21.0 °F 49% 30.16 in 10.0 mi NE 6.9 mph - N/A   Clear
9:54 PM 37.0 °F 32.4 °F 21.0 °F 52% 30.17 in 10.0 mi NNE 5.8 mph - N/A   Clear
10:54 PM 37.9 °F 32.1 °F 23.0 °F 55% 30.17 in 10.0 mi NNE 8.1 mph - N/A   Clear
11:54 PM 39.0 °F 34.0 °F 23.0 °F 53% 30.18 in 10.0 mi NNE 6.9 mph - N/A   Clear